Location: Beugnon
(47.6222°N, 3.7850°E)
Time: 23:40:48
(UTC+00:00)

Cosmos 1934 Rocket - Pass Details

Date: 09 April 2020
Orbit: 937 x 1000 km, 83.0° (Epoch: 29 May)

Event Time Altitude Azimuth Distance (km) Brightness Sun altitude
Rises 22:02:40 0° 349° (N) 3,696 8.1 -29.8°
Reaches altitude 10° 22:05:13 10° 347° (NNW) 2,735 7.2 -30.0°
Enters shadow 22:11:26 71° 265° (W) 1,020 4.0 -30.5°
